When you browse on this site, cookies collect data to enhance your experience and personalize the content and advertising you see.
Visit our Privacy Policy to learn more. By continuing to use the site, you agree to this use of cookies and data.

Météo par heure à Zybino

Ce jour, 11 Juillet, Samedi

Heure Température Précipitation Vent Pression Humidité
00:00 +14°C° 0 mm 3 m/s 749 mmHg 81%
01:00 +14°C° 0 mm 3 m/s 749 mmHg 82%
02:00 +13°C° 0 mm 3 m/s 749 mmHg 84%
03:00 +14°C° 0 mm 2 m/s 749 mmHg 83%
04:00 +13°C° 0 mm 3 m/s 749 mmHg 83%
05:00 +14°C° 0 mm 3 m/s 749 mmHg 83%
06:00 +14°C° 0 mm 3 m/s 749 mmHg 83%
07:00 +17°C° 0 mm 4 m/s 749 mmHg 80%
08:00 +18°C° 0 mm 4 m/s 749 mmHg 76%
09:00 +20°C° 0 mm 4 m/s 749 mmHg 73%
10:00 +21°C° 0 mm 5 m/s 749 mmHg 71%
11:00 +22°C° 0 mm 5 m/s 749 mmHg 69%
12:00 +23°C° 0 mm 5 m/s 749 mmHg 67%
13:00 +25°C° 0 mm 5 m/s 749 mmHg 67%
14:00 +25°C° 0 mm 5 m/s 749 mmHg 68%
15:00 +25°C° 0 mm 5 m/s 749 mmHg 68%
16:00 +25°C° 0 mm 5 m/s 748 mmHg 71%
17:00 +25°C° 0 mm 5 m/s 748 mmHg 74%
18:00 +25°C° 0 mm 4 m/s 748 mmHg 77%
19:00 +23°C° 0 mm 4 m/s 748 mmHg 81%
20:00 +21°C° 0 mm 4 m/s 748 mmHg 85%
21:00 +20°C° 0 mm 3 m/s 748 mmHg 89%
22:00 +19°C° 0 mm 3 m/s 748 mmHg 90%
23:00 +19°C° 0 mm 3 m/s 748 mmHg 91%

Demain, 12 Juillet, Dimanche

Heure Température Précipitation Vent Pression Humidité
00:00 +18°C° 0 mm 3 m/s 748 mmHg 92%
01:00 +18°C° 0 mm 3 m/s 747 mmHg 93%
02:00 +18°C° 0 mm 3 m/s 747 mmHg 93%
03:00 +17°C° 0 mm 3 m/s 747 mmHg 93%
04:00 +17°C° 0 mm 3 m/s 747 mmHg 92%
05:00 +18°C° 0 mm 3 m/s 747 mmHg 91%
06:00 +18°C° 0 mm 3 m/s 747 mmHg 90%
07:00 +19°C° 0 mm 3 m/s 747 mmHg 86%
08:00 +21°C° 0 mm 3 m/s 747 mmHg 81%
09:00 +23°C° 0 mm 2 m/s 747 mmHg 77%
10:00 +24°C° 0 mm 3 m/s 747 mmHg 74%
11:00 +25°C° 0 mm 3 m/s 746 mmHg 71%
12:00 +26°C° 0 mm 3 m/s 746 mmHg 68%
13:00 +26°C° 0 mm 3 m/s 746 mmHg 67%
14:00 +27°C° 0 mm 4 m/s 746 mmHg 66%
15:00 +27°C° 0 mm 4 m/s 745 mmHg 66%
16:00 +27°C° 0 mm 3 m/s 745 mmHg 68%
17:00 +26°C° 0 mm 3 m/s 745 mmHg 71%
18:00 +26°C° 0 mm 3 m/s 744 mmHg 74%
19:00 +24°C° 0 mm 2 m/s 744 mmHg 77%
20:00 +23°C° 0 mm 2 m/s 744 mmHg 81%
21:00 +20°C° 0 mm 2 m/s 744 mmHg 84%
22:00 +20°C° 0 mm 2 m/s 744 mmHg 85%
23:00 +19°C° 0 mm 2 m/s 744 mmHg 86%

Après-demain, 13 Juillet, Lundi

Heure Température Précipitation Vent Pression Humidité
00:00 +18°C° 0 mm 2 m/s 743 mmHg 87%
01:00 +18°C° 0 mm 2 m/s 743 mmHg 88%
02:00 +17°C° 0 mm 2 m/s 743 mmHg 89%
03:00 +17°C° 0 mm 2 m/s 742 mmHg 90%
04:00 +18°C° 0 mm 1 m/s 742 mmHg 89%
05:00 +19°C° 0 mm 1 m/s 742 mmHg 89%
06:00 +19°C° 0 mm 1 m/s 742 mmHg 89%
07:00 +21°C° 0 mm 1 m/s 742 mmHg 84%
08:00 +22°C° 0 mm 1 m/s 742 mmHg 79%
09:00 +24°C° 0 mm 1 m/s 742 mmHg 74%
10:00 +25°C° 0.1 mm 1 m/s 741 mmHg 70%
11:00 +25°C° 0.1 mm 1 m/s 741 mmHg 67%
12:00 +26°C° 0.1 mm 1 m/s 741 mmHg 63%
13:00 +26°C° 0.3 mm 1 m/s 740 mmHg 64%
14:00 +27°C° 0.3 mm 1 m/s 740 mmHg 64%
15:00 +27°C° 0.3 mm 1 m/s 740 mmHg 64%
16:00 +26°C° 1.2 mm 1 m/s 740 mmHg 69%
17:00 +26°C° 1.2 mm 1 m/s 739 mmHg 73%
18:00 +25°C° 1.2 mm 1 m/s 739 mmHg 78%
19:00 +24°C° 1.7 mm 2 m/s 739 mmHg 82%
20:00 +21°C° 1.7 mm 3 m/s 739 mmHg 87%
21:00 +20°C° 1.7 mm 4 m/s 739 mmHg 92%
22:00 +19°C° 1 mm 4 m/s 739 mmHg 93%
23:00 +19°C° 1 mm 4 m/s 739 mmHg 95%

14 Juillet, Mardi

Heure Température Précipitation Vent Pression Humidité
00:00 +18°C° 1 mm 4 m/s 738 mmHg 97%
01:00 +18°C° 0.9 mm 4 m/s 738 mmHg 97%
02:00 +18°C° 0.9 mm 4 m/s 738 mmHg 97%
03:00 +18°C° 0.9 mm 4 m/s 738 mmHg 97%
04:00 +18°C° 1 mm 4 m/s 738 mmHg 97%
05:00 +18°C° 1 mm 4 m/s 738 mmHg 97%
06:00 +18°C° 1 mm 4 m/s 738 mmHg 97%
07:00 +16°C° 0.7 mm 5 m/s 738 mmHg 97%
08:00 +16°C° 0.7 mm 5 m/s 738 mmHg 97%
09:00 +16°C° 0.7 mm 5 m/s 738 mmHg 96%
10:00 +16°C° 0.3 mm 5 m/s 738 mmHg 96%
11:00 +15°C° 0.3 mm 5 m/s 739 mmHg 96%
12:00 +15°C° 0.3 mm 5 m/s 739 mmHg 95%
13:00 +16°C° 0 mm 6 m/s 739 mmHg 94%
14:00 +16°C° 0 mm 6 m/s 739 mmHg 92%
15:00 +17°C° 0 mm 6 m/s 739 mmHg 90%
16:00 +17°C° 0 mm 6 m/s 739 mmHg 89%
17:00 +17°C° 0 mm 6 m/s 739 mmHg 87%
18:00 +17°C° 0 mm 6 m/s 739 mmHg 86%
19:00 +17°C° 0 mm 6 m/s 739 mmHg 85%
20:00 +16°C° 0 mm 5 m/s 739 mmHg 85%
21:00 +16°C° 0 mm 5 m/s 740 mmHg 84%
22:00 +16°C° 0 mm 5 m/s 740 mmHg 84%
23:00 +15°C° 0 mm 5 m/s 740 mmHg 83%

15 Juillet, Mercredi

Heure Température Précipitation Vent Pression Humidité
00:00 +15°C° 0 mm 5 m/s 740 mmHg 83%
01:00 +15°C° 0 mm 5 m/s 739 mmHg 81%
02:00 +15°C° 0 mm 6 m/s 739 mmHg 80%
03:00 +16°C° 0 mm 6 m/s 739 mmHg 78%
04:00 +15°C° 0.6 mm 6 m/s 739 mmHg 81%
05:00 +15°C° 0.6 mm 6 m/s 739 mmHg 84%
06:00 +14°C° 0.6 mm 5 m/s 739 mmHg 87%
07:00 +15°C° 0.5 mm 6 m/s 739 mmHg 87%
08:00 +15°C° 0.5 mm 7 m/s 739 mmHg 87%
09:00 +15°C° 0.5 mm 7 m/s 739 mmHg 86%
10:00 +15°C° 0.4 mm 7 m/s 739 mmHg 87%
11:00 +14°C° 0.4 mm 7 m/s 739 mmHg 88%
12:00 +14°C° 0.4 mm 6 m/s 739 mmHg 89%
13:00 +14°C° 2 mm 7 m/s 739 mmHg 90%
14:00 +12°C° 2 mm 7 m/s 740 mmHg 91%
15:00 +12°C° 2 mm 8 m/s 740 mmHg 92%
16:00 +12°C° 0.8 mm 7 m/s 740 mmHg 92%
17:00 +11°C° 0.8 mm 7 m/s 740 mmHg 91%
18:00 +11°C° 0.8 mm 6 m/s 740 mmHg 90%
19:00 +11°C° 0.2 mm 6 m/s 740 mmHg 89%
20:00 +12°C° 0.2 mm 5 m/s 741 mmHg 89%
21:00 +12°C° 0.2 mm 5 m/s 741 mmHg 88%
22:00 +12°C° 0.2 mm 5 m/s 740 mmHg 88%
23:00 +12°C° 0.2 mm 5 m/s 740 mmHg 88%

16 Juillet, Jeudi

Heure Température Précipitation Vent Pression Humidité
00:00 +12°C° 0.2 mm 5 m/s 740 mmHg 88%
01:00 +12°C° 0.2 mm 5 m/s 740 mmHg 88%
02:00 +12°C° 0.2 mm 5 m/s 740 mmHg 88%
03:00 +12°C° 0.2 mm 5 m/s 740 mmHg 88%
04:00 +12°C° 0 mm 5 m/s 740 mmHg 88%
05:00 +12°C° 0 mm 5 m/s 740 mmHg 87%
06:00 +12°C° 0 mm 4 m/s 740 mmHg 87%
07:00 +13°C° 0 mm 4 m/s 739 mmHg 86%
08:00 +14°C° 0 mm 4 m/s 739 mmHg 85%
09:00 +15°C° 0 mm 4 m/s 739 mmHg 85%
10:00 +17°C° 0.1 mm 4 m/s 739 mmHg 81%
11:00 +18°C° 0.1 mm 4 m/s 739 mmHg 78%
12:00 +19°C° 0.1 mm 4 m/s 740 mmHg 75%
13:00 +19°C° 0.2 mm 4 m/s 740 mmHg 75%
14:00 +19°C° 0.2 mm 4 m/s 740 mmHg 76%
15:00 +19°C° 0.2 mm 4 m/s 740 mmHg 77%
16:00 +18°C° 0.1 mm 3 m/s 739 mmHg 78%
17:00 +18°C° 0.1 mm 3 m/s 739 mmHg 80%
18:00 +17°C° 0.1 mm 2 m/s 739 mmHg 82%
19:00 +16°C° 0 mm 2 m/s 739 mmHg 83%
20:00 +16°C° 0 mm 2 m/s 739 mmHg 84%
21:00 +15°C° 0 mm 2 m/s 739 mmHg 84%
22:00 +15°C° 0 mm 2 m/s 739 mmHg 84%
23:00 +14°C° 0 mm 2 m/s 739 mmHg 84%
Voir plus